TimeCST,TemperatureF,Dew PointF,Humidity,Sea Level PressureIn,VisibilityMPH,Wind Direction,Wind SpeedMPH,Gust SpeedMPH,PrecipitationIn,Events,Conditions,WindDirDegrees,DateUTC
12:15 AM,19.4,12.2,74,30.17,10.0,WNW,6.9,-,N/A,,Clear,290,2012-12-29 06:15:00
12:35 AM,21.2,14.0,74,30.18,10.0,WNW,6.9,-,N/A,,Clear,290,2012-12-29 06:35:00
12:55 AM,19.4,12.2,74,30.18,10.0,West,6.9,-,N/A,,Clear,280,2012-12-29 06:55:00
1:15 AM,17.6,12.2,79,30.18,10.0,West,9.2,-,N/A,,Clear,260,2012-12-29 07:15:00
1:35 AM,17.6,12.2,79,30.19,10.0,West,10.4,-,N/A,,Clear,270,2012-12-29 07:35:00
1:55 AM,17.6,12.2,79,30.20,10.0,West,9.2,-,N/A,,Clear,280,2012-12-29 07:55:00
2:15 AM,17.6,12.2,79,30.21,10.0,West,10.4,-,N/A,,Clear,280,2012-12-29 08:15:00
2:35 AM,17.6,12.2,79,30.21,10.0,West,9.2,-,N/A,,Clear,270,2012-12-29 08:35:00
2:55 AM,17.6,12.2,79,30.23,10.0,West,10.4,-,N/A,,Clear,270,2012-12-29 08:55:00
3:15 AM,15.8,12.2,86,30.23,10.0,West,10.4,-,N/A,,Clear,270,2012-12-29 09:15:00
3:35 AM,17.6,12.2,79,30.24,10.0,West,10.4,-,N/A,,Clear,270,2012-12-29 09:35:00
3:55 AM,17.6,12.2,79,30.24,10.0,WNW,8.1,-,N/A,,Clear,300,2012-12-29 09:55:00
4:15 AM,17.6,12.2,79,30.24,10.0,WNW,9.2,-,N/A,,Clear,300,2012-12-29 10:15:00
4:35 AM,17.6,12.2,79,30.24,10.0,WNW,9.2,-,N/A,,Clear,290,2012-12-29 10:35:00
4:55 AM,17.6,12.2,79,30.24,10.0,West,10.4,-,N/A,,Clear,280,2012-12-29 10:55:00
5:15 AM,17.6,12.2,79,30.25,10.0,West,9.2,-,N/A,,Clear,280,2012-12-29 11:15:00
5:35 AM,17.6,12.2,79,30.26,10.0,West,8.1,-,N/A,,Clear,270,2012-12-29 11:35:00
5:55 AM,17.6,12.2,79,30.27,10.0,West,10.4,-,N/A,,Clear,270,2012-12-29 11:55:00
6:15 AM,15.8,10.4,79,30.27,10.0,West,9.2,-,N/A,,Clear,270,2012-12-29 12:15:00
6:35 AM,15.8,10.4,79,30.28,10.0,West,9.2,-,N/A,,Clear,280,2012-12-29 12:35:00
7:15 AM,15.8,10.4,79,30.30,10.0,West,9.2,-,N/A,,Clear,270,2012-12-29 13:15:00
7:35 AM,17.6,10.4,73,30.30,10.0,West,6.9,-,N/A,,Clear,280,2012-12-29 13:35:00
7:55 AM,19.4,12.2,74,30.29,10.0,WNW,6.9,-,N/A,,Clear,290,2012-12-29 13:55:00
8:15 AM,19.4,12.2,74,30.30,10.0,West,8.1,-,N/A,,Clear,270,2012-12-29 14:15:00
8:35 AM,19.4,12.2,74,30.31,10.0,West,6.9,-,N/A,,Clear,270,2012-12-29 14:35:00
8:55 AM,21.2,14.0,74,30.32,10.0,West,9.2,-,N/A,,Clear,270,2012-12-29 14:55:00
9:15 AM,23.0,15.8,74,30.33,10.0,West,8.1,-,N/A,,Clear,270,2012-12-29 15:15:00
9:35 AM,24.8,15.8,69,30.34,10.0,West,5.8,-,N/A,,Clear,280,2012-12-29 15:35:00
10:35 AM,30.2,17.6,60,30.37,10.0,West,9.2,-,N/A,,Clear,280,2012-12-29 16:35:00
11:35 AM,32.0,17.6,55,30.36,10.0,West,6.9,-,N/A,,Clear,280,2012-12-29 17:35:00
11:55 AM,33.8,19.4,56,30.35,10.0,West,5.8,-,N/A,,Clear,280,2012-12-29 17:55:00
12:15 PM,33.8,19.4,56,30.34,10.0,West,4.6,-,N/A,,Clear,280,2012-12-29 18:15:00
12:55 PM,35.6,19.4,52,30.32,10.0,West,5.8,-,N/A,,Clear,280,2012-12-29 18:55:00
1:15 PM,37.4,17.6,45,30.32,10.0,West,3.5,-,N/A,,Clear,270,2012-12-29 19:15:00
1:35 PM,37.4,15.8,41,30.30,10.0,Calm,Calm,-,N/A,,Clear,0,2012-12-29 19:35:00
1:55 PM,39.2,14.0,36,30.29,10.0,West,3.5,-,N/A,,Clear,280,2012-12-29 19:55:00
2:15 PM,39.2,12.2,33,30.29,10.0,WSW,8.1,-,N/A,,Clear,240,2012-12-29 20:15:00
2:35 PM,41.0,12.2,31,30.29,10.0,WSW,8.1,-,N/A,,Clear,240,2012-12-29 20:35:00
2:55 PM,41.0,14.0,33,30.28,10.0,West,4.6,-,N/A,,Clear,260,2012-12-29 20:55:00
3:15 PM,41.0,14.0,33,30.28,10.0,SW,6.9,-,N/A,,Clear,220,2012-12-29 21:15:00
3:35 PM,41.0,14.0,33,30.27,10.0,WSW,8.1,-,N/A,,Clear,240,2012-12-29 21:35:00
3:55 PM,41.0,14.0,33,30.27,10.0,SW,8.1,-,N/A,,Clear,230,2012-12-29 21:55:00
4:15 PM,42.8,14.0,31,30.26,10.0,SSW,9.2,-,N/A,,Clear,200,2012-12-29 22:15:00
4:35 PM,42.8,14.0,31,30.26,10.0,SSW,8.1,-,N/A,,Clear,210,2012-12-29 22:35:00
4:55 PM,41.0,15.8,36,30.25,10.0,SSW,6.9,-,N/A,,Clear,210,2012-12-29 22:55:00
5:15 PM,39.2,15.8,39,30.25,10.0,SSW,6.9,-,N/A,,Clear,210,2012-12-29 23:15:00
5:35 PM,35.6,17.6,48,30.25,10.0,SSW,8.1,-,N/A,,Clear,200,2012-12-29 23:35:00
5:55 PM,32.0,15.8,51,30.25,10.0,SSW,10.4,-,N/A,,Clear,200,2012-12-29 23:55:00
6:15 PM,32.0,15.8,51,30.24,10.0,South,9.2,-,N/A,,Clear,190,2012-12-30 00:15:00
6:35 PM,30.2,15.8,55,30.24,10.0,South,10.4,-,N/A,,Clear,180,2012-12-30 00:35:00
7:15 PM,32.0,14.0,48,30.24,10.0,South,8.1,-,N/A,,Clear,170,2012-12-30 01:15:00
7:35 PM,32.0,14.0,48,30.25,10.0,South,10.4,-,N/A,,Clear,180,2012-12-30 01:35:00
7:55 PM,32.0,14.0,48,30.25,10.0,South,10.4,-,N/A,,Clear,180,2012-12-30 01:55:00
8:15 PM,32.0,14.0,48,30.25,10.0,South,11.5,-,N/A,,Clear,180,2012-12-30 02:15:00
8:35 PM,32.0,14.0,48,30.26,10.0,South,12.7,-,N/A,,Clear,180,2012-12-30 02:35:00
8:55 PM,32.0,12.2,44,30.26,10.0,South,11.5,-,N/A,,Clear,180,2012-12-30 02:55:00
9:15 PM,30.2,14.0,51,30.26,10.0,South,11.5,-,N/A,,Clear,190,2012-12-30 03:15:00
9:35 PM,30.2,14.0,51,30.25,10.0,South,11.5,-,N/A,,Clear,190,2012-12-30 03:35:00
9:55 PM,30.2,12.2,47,30.25,10.0,South,11.5,-,N/A,,Clear,180,2012-12-30 03:55:00
10:15 PM,30.2,12.2,47,30.25,10.0,South,12.7,-,N/A,,Clear,180,2012-12-30 04:15:00
10:35 PM,28.4,12.2,51,30.24,10.0,South,11.5,-,N/A,,Clear,180,2012-12-30 04:35:00
10:55 PM,28.4,12.2,51,30.24,10.0,South,13.8,-,N/A,,Clear,180,2012-12-30 04:55:00
11:15 PM,28.4,12.2,51,30.24,10.0,South,10.4,-,N/A,,Clear,180,2012-12-30 05:15:00
11:35 PM,26.6,12.2,55,30.23,10.0,South,11.5,-,N/A,,Clear,180,2012-12-30 05:35:00
11:55 PM,26.6,14.0,59,30.23,10.0,South,12.7,-,N/A,,Clear,190,2012-12-30 05:55:00